Hourly Weather Ruynovo

Today, 20 April, Tuesday

Time Temperature Precipitation Wind Pressure Humidity
00:00 +2°C° 0 mm 3 mps 752 mmHg 63%
01:00 +1°C° 0 mm 3 mps 752 mmHg 65%
02:00 0°C° 0 mm 3 mps 752 mmHg 67%
03:00 0°C° 0 mm 3 mps 752 mmHg 68%
04:00 -1°C° 0 mm 4 mps 751 mmHg 69%
05:00 -1°C° 0 mm 4 mps 751 mmHg 70%
06:00 0°C° 0 mm 4 mps 751 mmHg 69%
07:00 +1°C° 0 mm 4 mps 751 mmHg 67%
08:00 +2°C° 0 mm 5 mps 751 mmHg 65%
09:00 +3°C° 0 mm 5 mps 751 mmHg 61%
10:00 +5°C° 0 mm 5 mps 750 mmHg 56%
11:00 +7°C° 0 mm 5 mps 750 mmHg 52%
12:00 +6°C° 0 mm 5 mps 750 mmHg 55%
13:00 +6°C° 0 mm 5 mps 749 mmHg 59%
14:00 +6°C° 0 mm 5 mps 749 mmHg 62%
15:00 +5°C° 0.5 mm 5 mps 749 mmHg 72%
16:00 +4°C° 0.5 mm 4 mps 748 mmHg 82%
17:00 +3°C° 0.5 mm 4 mps 748 mmHg 92%
18:00 +3°C° 0.2 mm 4 mps 747 mmHg 90%
19:00 +3°C° 0.2 mm 4 mps 747 mmHg 88%
20:00 +4°C° 0.2 mm 4 mps 746 mmHg 86%
21:00 +4°C° 0.1 mm 4 mps 746 mmHg 86%
22:00 +3°C° 0.1 mm 4 mps 745 mmHg 87%
23:00 +3°C° 0.1 mm 4 mps 744 mmHg 87%

Tomorrow, 21 April, Wednesday

Time Temperature Precipitation Wind Pressure Humidity
00:00 +1°C° 0.4 mm 4 mps 743 mmHg 90%
01:00 0°C° 0.4 mm 4 mps 742 mmHg 92%
02:00 0°C° 0.4 mm 4 mps 741 mmHg 95%
03:00 -1°C° 1.1 mm 4 mps 740 mmHg 95%
04:00 -1°C° 1.1 mm 4 mps 739 mmHg 96%
05:00 -2°C° 1.1 mm 5 mps 738 mmHg 97%
06:00 -2°C° 1.1 mm 5 mps 737 mmHg 97%
07:00 -2°C° 1.1 mm 5 mps 737 mmHg 97%
08:00 -1°C° 1.1 mm 5 mps 736 mmHg 97%
09:00 -1°C° 1.6 mm 4 mps 735 mmHg 97%
10:00 -1°C° 1.6 mm 4 mps 734 mmHg 98%
11:00 -1°C° 1.6 mm 4 mps 733 mmHg 98%
12:00 0°C° 1 mm 3 mps 733 mmHg 98%
13:00 0°C° 1 mm 3 mps 733 mmHg 99%
14:00 +1°C° 1 mm 2 mps 732 mmHg 99%
15:00 0°C° 0.1 mm 3 mps 733 mmHg 98%
16:00 0°C° 0.1 mm 3 mps 734 mmHg 98%
17:00 -1°C° 0.1 mm 4 mps 734 mmHg 97%
18:00 -1°C° 0.1 mm 4 mps 735 mmHg 98%
19:00 -1°C° 0.1 mm 4 mps 736 mmHg 98%
20:00 -1°C° 0.1 mm 4 mps 737 mmHg 98%
21:00 -1°C° 0.1 mm 4 mps 737 mmHg 98%
22:00 0°C° 0.1 mm 3 mps 738 mmHg 98%
23:00 0°C° 0.1 mm 3 mps 738 mmHg 98%

Day after tomorrow, 22 April, Thursday

Time Temperature Precipitation Wind Pressure Humidity
00:00 0°C° 0.1 mm 3 mps 738 mmHg 98%
01:00 0°C° 0.1 mm 3 mps 739 mmHg 98%
02:00 +1°C° 0.1 mm 3 mps 739 mmHg 98%
03:00 +1°C° 0 mm 3 mps 740 mmHg 98%
04:00 +1°C° 0 mm 3 mps 740 mmHg 99%
05:00 +2°C° 0 mm 2 mps 741 mmHg 99%
06:00 +3°C° 0 mm 2 mps 741 mmHg 97%
07:00 +3°C° 0 mm 3 mps 741 mmHg 94%
08:00 +3°C° 0 mm 3 mps 742 mmHg 92%
09:00 +5°C° 0 mm 3 mps 742 mmHg 86%
10:00 +6°C° 0 mm 4 mps 742 mmHg 81%
11:00 +8°C° 0 mm 4 mps 743 mmHg 76%
12:00 +10°C° 0.1 mm 4 mps 743 mmHg 73%
13:00 +10°C° 0.1 mm 4 mps 743 mmHg 70%
14:00 +11°C° 0.1 mm 4 mps 743 mmHg 68%
15:00 +11°C° 0.1 mm 4 mps 743 mmHg 70%
16:00 +10°C° 0.1 mm 4 mps 743 mmHg 72%
17:00 +10°C° 0.1 mm 3 mps 743 mmHg 73%
18:00 +8°C° 0 mm 3 mps 744 mmHg 79%
19:00 +7°C° 0 mm 3 mps 744 mmHg 85%
20:00 +5°C° 0 mm 3 mps 744 mmHg 91%
21:00 +4°C° 0 mm 3 mps 744 mmHg 92%
22:00 +4°C° 0 mm 3 mps 744 mmHg 92%
23:00 +4°C° 0 mm 3 mps 744 mmHg 92%

23 April, Friday

Time Temperature Precipitation Wind Pressure Humidity
00:00 +4°C° 0 mm 3 mps 744 mmHg 92%
01:00 +3°C° 0 mm 3 mps 744 mmHg 92%
02:00 +3°C° 0 mm 3 mps 744 mmHg 92%
03:00 +3°C° 0 mm 3 mps 744 mmHg 91%
04:00 +3°C° 0 mm 4 mps 744 mmHg 90%
05:00 +3°C° 0 mm 4 mps 744 mmHg 89%
06:00 +5°C° 0 mm 4 mps 744 mmHg 86%
07:00 +6°C° 0 mm 5 mps 743 mmHg 83%
08:00 +8°C° 0 mm 5 mps 743 mmHg 80%
09:00 +9°C° 0 mm 5 mps 743 mmHg 78%
10:00 +10°C° 0 mm 5 mps 743 mmHg 75%
11:00 +13°C° 0 mm 6 mps 743 mmHg 73%
12:00 +12°C° 0.2 mm 5 mps 743 mmHg 75%
13:00 +12°C° 0.2 mm 5 mps 742 mmHg 77%
14:00 +12°C° 0.2 mm 4 mps 742 mmHg 79%
15:00 +12°C° 0.2 mm 4 mps 742 mmHg 80%
16:00 +12°C° 0.2 mm 3 mps 742 mmHg 81%
17:00 +12°C° 0.2 mm 3 mps 742 mmHg 81%
18:00 +11°C° 0.8 mm 3 mps 741 mmHg 84%
19:00 +10°C° 0.8 mm 3 mps 741 mmHg 87%
20:00 +9°C° 0.8 mm 3 mps 741 mmHg 90%
21:00 +8°C° 0.6 mm 3 mps 741 mmHg 92%
22:00 +8°C° 0.6 mm 2 mps 741 mmHg 94%
23:00 +8°C° 0.6 mm 1 mps 740 mmHg 97%

24 April, Saturday

Time Temperature Precipitation Wind Pressure Humidity
00:00 +7°C° 0.7 mm 1 mps 740 mmHg 96%
01:00 +7°C° 0.7 mm 1 mps 740 mmHg 96%
02:00 +7°C° 0.7 mm 1 mps 739 mmHg 96%
03:00 +5°C° 1.3 mm 2 mps 739 mmHg 96%
04:00 +4°C° 1.3 mm 2 mps 739 mmHg 97%
05:00 +2°C° 1.3 mm 3 mps 739 mmHg 97%
06:00 +2°C° 0.6 mm 3 mps 739 mmHg 97%
07:00 +3°C° 0.6 mm 2 mps 739 mmHg 97%
08:00 +3°C° 0.6 mm 2 mps 739 mmHg 96%
09:00 +3°C° 0.8 mm 2 mps 739 mmHg 95%
10:00 +4°C° 0.8 mm 1 mps 739 mmHg 94%
11:00 +4°C° 0.8 mm 1 mps 739 mmHg 93%
12:00 +5°C° 0.3 mm 1 mps 739 mmHg 92%
13:00 +5°C° 0.3 mm 1 mps 739 mmHg 90%
14:00 +6°C° 0.3 mm 1 mps 739 mmHg 88%
15:00 +5°C° 0.3 mm 1 mps 739 mmHg 90%
16:00 +5°C° 0.3 mm 1 mps 738 mmHg 91%
17:00 +5°C° 0.3 mm 1 mps 738 mmHg 93%
18:00 +5°C° 0.4 mm 1 mps 738 mmHg 94%
19:00 +5°C° 0.4 mm 1 mps 738 mmHg 95%
20:00 +3°C° 0.4 mm 2 mps 737 mmHg 97%
21:00 +3°C° 0.6 mm 2 mps 737 mmHg 96%
22:00 +2°C° 0.6 mm 3 mps 737 mmHg 96%
23:00 +2°C° 0.6 mm 3 mps 736 mmHg 95%

25 April, Sunday

Time Temperature Precipitation Wind Pressure Humidity
00:00 +1°C° 0.3 mm 4 mps 736 mmHg 94%
01:00 0°C° 0.3 mm 4 mps 736 mmHg 93%
02:00 0°C° 0.3 mm 4 mps 735 mmHg 93%
03:00 0°C° 0 mm 4 mps 735 mmHg 93%
04:00 0°C° 0 mm 5 mps 735 mmHg 93%
05:00 -1°C° 0 mm 5 mps 735 mmHg 93%
06:00 -1°C° 0.3 mm 5 mps 735 mmHg 93%
07:00 -1°C° 0.3 mm 5 mps 735 mmHg 93%
08:00 -2°C° 0.3 mm 6 mps 735 mmHg 93%
09:00 -1°C° 0.3 mm 6 mps 735 mmHg 89%
10:00 +1°C° 0.3 mm 6 mps 735 mmHg 85%
11:00 +2°C° 0.3 mm 6 mps 735 mmHg 80%
12:00 +2°C° 0.1 mm 6 mps 735 mmHg 77%
13:00 +3°C° 0.1 mm 6 mps 736 mmHg 74%
14:00 +3°C° 0.1 mm 6 mps 736 mmHg 72%
15:00 +3°C° 0.1 mm 6 mps 736 mmHg 71%
16:00 +2°C° 0.1 mm 5 mps 736 mmHg 71%
17:00 +2°C° 0.1 mm 5 mps 736 mmHg 71%
18:00 +1°C° 0 mm 4 mps 736 mmHg 72%
19:00 0°C° 0 mm 4 mps 736 mmHg 74%
20:00 0°C° 0 mm 3 mps 736 mmHg 76%
21:00 0°C° 0 mm 3 mps 735 mmHg 76%
22:00 -1°C° 0 mm 4 mps 735 mmHg 75%
23:00 -1°C° 0 mm 4 mps 735 mmHg 75%
Show more